Time,TemperatureF,DewpointF,PressureIn,WindDirection,WindDirectionDegrees,WindSpeedMPH,WindSpeedGustMPH,Humidity,HourlyPrecipIn,Conditions,Clouds,dailyrainin,SoftwareType,DateUTC
2013-02-26 00:00:00,72.2,68.8,29.82,SE,143,1.0,8.0,89,0.00,,---,0.00,VWS V14.01,2013-02-26 05:00:00,
2013-02-26 00:01:00,72.1,68.7,29.82,SE,126,1.0,8.0,89,0.00,,---,0.00,VWS V14.01,2013-02-26 05:01:00,
2013-02-26 00:06:00,72.0,68.9,29.82,SSW,206,0.0,1.0,90,0.00,,---,0.00,VWS V14.01,2013-02-26 05:06:00,
2013-02-26 00:11:00,71.9,68.8,29.82,SSE,155,0.0,2.0,90,0.00,,---,0.00,VWS V14.01,2013-02-26 05:11:00,
2013-02-26 00:16:00,71.8,68.7,29.82,SSE,162,1.0,3.0,90,0.00,,---,0.00,VWS V14.01,2013-02-26 05:16:00,
2013-02-26 00:21:00,71.6,68.8,29.82,SSW,210,3.0,3.0,91,0.00,,---,0.00,VWS V14.01,2013-02-26 05:21:00,
2013-02-26 00:26:00,71.6,68.8,29.82,SSW,198,0.0,4.0,91,0.00,,---,0.00,VWS V14.01,2013-02-26 05:26:00,
2013-02-26 00:31:00,71.5,68.7,29.82,South,174,1.0,4.0,91,0.00,,---,0.00,VWS V14.01,2013-02-26 05:31:00,
2013-02-26 00:36:00,71.4,68.6,29.82,SSE,160,1.0,2.0,91,0.00,,---,0.00,VWS V14.01,2013-02-26 05:36:00,
2013-02-26 00:42:00,71.3,68.5,29.81,SSE,167,1.0,2.0,91,0.00,,---,0.00,VWS V14.01,2013-02-26 05:42:00,
2013-02-26 00:47:00,71.3,68.9,29.81,ESE,110,1.0,3.0,92,0.00,,---,0.00,VWS V14.01,2013-02-26 05:47:00,
2013-02-26 00:52:00,71.3,68.9,29.81,SE,146,1.0,4.0,92,0.00,,---,0.00,VWS V14.01,2013-02-26 05:52:00,
2013-02-26 00:57:00,71.3,68.9,29.81,SSW,210,3.0,4.0,92,0.00,,---,0.00,VWS V14.01,2013-02-26 05:57:00,
2013-02-26 01:02:00,71.2,68.8,29.81,SW,219,2.0,2.0,92,0.00,,---,0.00,VWS V14.01,2013-02-26 06:02:00,
2013-02-26 01:07:00,71.2,68.8,29.81,SW,231,1.0,4.0,92,0.00,,---,0.00,VWS V14.01,2013-02-26 06:07:00,
2013-02-26 01:12:00,71.2,69.1,29.81,South,172,0.0,4.0,93,0.00,,---,0.00,VWS V14.01,2013-02-26 06:12:00,
2013-02-26 01:17:00,71.2,69.1,29.81,SSE,167,1.0,4.0,93,0.00,,---,0.00,VWS V14.01,2013-02-26 06:17:00,
2013-02-26 01:22:00,71.2,69.1,29.80,SE,145,2.0,5.0,93,0.00,,---,0.00,VWS V14.01,2013-02-26 06:22:00,
2013-02-26 01:27:00,71.1,69.0,29.80,SSE,160,1.0,5.0,93,0.00,,---,0.00,VWS V14.01,2013-02-26 06:27:00,
2013-02-26 01:32:00,71.2,69.1,29.80,SE,145,2.0,2.0,93,0.00,,---,0.00,VWS V14.01,2013-02-26 06:32:00,
2013-02-26 01:38:00,71.2,69.1,29.80,SE,135,2.0,5.0,93,0.00,,---,0.00,VWS V14.01,2013-02-26 06:38:00,
2013-02-26 01:43:00,71.1,69.0,29.80,South,173,2.0,5.0,93,0.00,,---,0.00,VWS V14.01,2013-02-26 06:43:00,
2013-02-26 01:48:00,71.1,69.3,29.80,SE,138,0.0,5.0,94,0.00,,---,0.00,VWS V14.01,2013-02-26 06:48:00,
2013-02-26 01:53:00,71.1,69.3,29.80,SSE,149,0.0,5.0,94,0.00,,---,0.00,VWS V14.01,2013-02-26 06:53:00,
2013-02-26 01:58:00,71.1,69.3,29.80,SW,214,0.0,5.0,94,0.00,,---,0.00,VWS V14.01,2013-02-26 06:58:00,
2013-02-26 02:03:00,71.1,69.3,29.80,SE,146,0.0,2.0,94,0.00,,---,0.00,VWS V14.01,2013-02-26 07:03:00,
2013-02-26 02:08:00,71.1,69.3,29.80,South,191,1.0,6.0,94,0.00,,---,0.00,VWS V14.01,2013-02-26 07:08:00,
2013-02-26 02:13:00,71.1,69.3,29.80,SW,226,2.0,6.0,94,0.00,,---,0.00,VWS V14.01,2013-02-26 07:13:00,
2013-02-26 02:18:00,71.1,69.3,29.80,SSW,210,1.0,6.0,94,0.00,,---,0.00,VWS V14.01,2013-02-26 07:18:00,
2013-02-26 02:24:00,71.2,69.4,29.80,ESE,123,1.0,9.0,94,0.00,,---,0.00,VWS V14.01,2013-02-26 07:24:00,
2013-02-26 02:29:00,71.4,69.6,29.80,SSW,198,2.0,9.0,94,0.00,,---,0.00,VWS V14.01,2013-02-26 07:29:00,
2013-02-26 02:34:00,71.5,69.7,29.80,SSW,205,2.0,4.0,94,0.00,,---,0.00,VWS V14.01,2013-02-26 07:34:00,
2013-02-26 02:39:00,71.5,69.7,29.80,SSE,147,1.0,5.0,94,0.00,,---,0.00,VWS V14.01,2013-02-26 07:39:00,
2013-02-26 02:44:00,71.5,69.7,29.79,SW,217,1.0,6.0,94,0.00,,---,0.00,VWS V14.01,2013-02-26 07:44:00,
2013-02-26 02:49:00,71.5,69.7,29.79,SSW,209,5.0,6.0,94,0.00,,---,0.00,VWS V14.01,2013-02-26 07:49:00,
2013-02-26 02:54:00,71.6,69.8,29.79,SSE,155,2.0,8.0,94,0.00,,---,0.00,VWS V14.01,2013-02-26 07:54:00,
2013-02-26 02:59:00,71.6,69.8,29.79,SSW,204,1.0,8.0,94,0.00,,---,0.00,VWS V14.01,2013-02-26 07:59:00,
2013-02-26 03:04:00,71.6,69.8,29.79,SSE,160,3.0,9.0,94,0.00,,---,0.00,VWS V14.01,2013-02-26 08:04:00,
2013-02-26 03:10:00,71.7,69.9,29.79,SE,141,1.0,9.0,94,0.00,,---,0.00,VWS V14.01,2013-02-26 08:10:00,
2013-02-26 03:15:00,71.7,69.9,29.79,WSW,238,2.0,9.0,94,0.00,,---,0.00,VWS V14.01,2013-02-26 08:15:00,
2013-02-26 03:20:00,71.8,70.0,29.79,SSE,152,3.0,9.0,94,0.00,,---,0.00,VWS V14.01,2013-02-26 08:20:00,
2013-02-26 03:25:00,71.8,70.0,29.79,South,170,4.0,9.0,94,0.00,,---,0.00,VWS V14.01,2013-02-26 08:25:00,
2013-02-26 03:30:00,71.8,69.7,29.79,South,174,4.0,9.0,93,0.00,,---,0.00,VWS V14.01,2013-02-26 08:30:00,
2013-02-26 03:35:00,71.9,69.8,29.79,SSE,153,1.0,3.0,93,0.00,,---,0.00,VWS V14.01,2013-02-26 08:35:00,
2013-02-26 03:40:00,71.9,69.8,29.79,SSE,156,1.0,7.0,93,0.00,,---,0.00,VWS V14.01,2013-02-26 08:40:00,
2013-02-26 03:45:00,72.0,69.9,29.79,ESE,102,2.0,7.0,93,0.00,,---,0.00,VWS V14.01,2013-02-26 08:45:00,
2013-02-26 03:50:00,72.0,70.2,29.79,SE,143,2.0,7.0,94,0.00,,---,0.00,VWS V14.01,2013-02-26 08:50:00,
2013-02-26 03:55:00,72.1,70.3,29.79,SSW,204,3.0,7.0,94,0.00,,---,0.00,VWS V14.01,2013-02-26 08:55:00,
2013-02-26 04:01:00,72.2,70.4,29.78,SW,222,1.0,7.0,94,0.00,,---,0.00,VWS V14.01,2013-02-26 09:01:00,
2013-02-26 04:06:00,72.2,70.1,29.78,SE,132,1.0,7.0,93,0.00,,---,0.00,VWS V14.01,2013-02-26 09:06:00,
2013-02-26 04:11:00,72.3,70.2,29.78,SSE,163,2.0,7.0,93,0.00,,---,0.00,VWS V14.01,2013-02-26 09:11:00,
2013-02-26 04:16:00,72.3,70.2,29.77,SSE,162,1.0,7.0,93,0.00,,---,0.00,VWS V14.01,2013-02-26 09:16:00,
2013-02-26 04:21:00,72.3,69.8,29.77,SE,145,2.0,7.0,92,0.00,,---,0.00,VWS V14.01,2013-02-26 09:21:00,
2013-02-26 04:26:00,72.3,69.8,29.77,South,181,2.0,7.0,92,0.00,,---,0.00,VWS V14.01,2013-02-26 09:26:00,
2013-02-26 04:31:00,72.4,69.9,29.77,West,267,2.0,7.0,92,0.00,,---,0.00,VWS V14.01,2013-02-26 09:31:00,
2013-02-26 04:36:00,72.5,70.1,29.77,SSE,163,1.0,2.0,92,0.00,,---,0.00,VWS V14.01,2013-02-26 09:36:00,
2013-02-26 04:41:00,72.6,70.5,29.77,SSW,199,2.0,7.0,93,0.00,,---,0.00,VWS V14.01,2013-02-26 09:41:00,
2013-02-26 04:46:00,72.6,70.2,29.77,South,186,2.0,7.0,92,0.00,,---,0.00,VWS V14.01,2013-02-26 09:46:00,
2013-02-26 04:51:00,72.6,70.5,29.77,SSW,200,3.0,7.0,93,0.00,,---,0.00,VWS V14.01,2013-02-26 09:51:00,
2013-02-26 04:56:00,72.6,70.5,29.77,ESE,112,1.0,7.0,93,0.00,,---,0.00,VWS V14.01,2013-02-26 09:56:00,
2013-02-26 05:01:00,72.6,70.5,29.78,South,176,5.0,7.0,93,0.00,,---,0.00,VWS V14.01,2013-02-26 10:01:00,
2013-02-26 05:07:00,72.5,70.4,29.78,SSE,167,1.0,6.0,93,0.00,,---,0.00,VWS V14.01,2013-02-26 10:07:00,
2013-02-26 05:12:00,72.5,70.4,29.79,SSW,193,1.0,6.0,93,0.00,,---,0.00,VWS V14.01,2013-02-26 10:12:00,
2013-02-26 05:17:00,72.5,70.4,29.79,SSE,149,0.0,6.0,93,0.00,,---,0.00,VWS V14.01,2013-02-26 10:17:00,
2013-02-26 05:22:00,72.5,70.7,29.79,SSE,160,1.0,6.0,94,0.00,,---,0.00,VWS V14.01,2013-02-26 10:22:00,
2013-02-26 05:27:00,72.5,70.4,29.80,South,170,1.0,6.0,93,0.00,,---,0.00,VWS V14.01,2013-02-26 10:27:00,
2013-02-26 05:32:00,72.5,70.7,29.80,SSE,153,0.0,2.0,94,0.00,,---,0.00,VWS V14.01,2013-02-26 10:32:00,
2013-02-26 05:37:00,72.4,70.6,29.80,South,183,2.0,3.0,94,0.00,,---,0.00,VWS V14.01,2013-02-26 10:37:00,
2013-02-26 05:42:00,72.4,70.6,29.80,SSW,211,4.0,4.0,94,0.00,,---,0.00,VWS V14.01,2013-02-26 10:42:00,
2013-02-26 05:48:00,72.5,70.7,29.80,South,174,1.0,4.0,94,0.00,,---,0.00,VWS V14.01,2013-02-26 10:48:00,
2013-02-26 05:53:00,72.5,70.7,29.80,SSE,147,1.0,6.0,94,0.00,,---,0.00,VWS V14.01,2013-02-26 10:53:00,
2013-02-26 05:58:00,72.6,70.8,29.80,SSW,195,4.0,6.0,94,0.00,,---,0.00,VWS V14.01,2013-02-26 10:58:00,
2013-02-26 06:03:00,72.6,70.8,29.80,South,185,2.0,3.0,94,0.00,,---,0.00,VWS V14.01,2013-02-26 11:03:00,
2013-02-26 06:08:00,72.5,70.4,29.80,West,270,1.0,6.0,93,0.00,,---,0.00,VWS V14.01,2013-02-26 11:08:00,
2013-02-26 06:13:00,72.5,70.4,29.80,SE,145,1.0,6.0,93,0.00,,---,0.00,VWS V14.01,2013-02-26 11:13:00,
2013-02-26 06:18:00,72.5,70.7,29.80,SE,145,1.0,7.0,94,0.00,,---,0.00,VWS V14.01,2013-02-26 11:18:00,
2013-02-26 06:23:00,72.5,70.4,29.80,SW,222,1.0,7.0,93,0.00,,---,0.00,VWS V14.01,2013-02-26 11:23:00,
2013-02-26 06:28:00,72.5,70.4,29.81,SW,221,3.0,7.0,93,0.00,,---,0.00,VWS V14.01,2013-02-26 11:28:00,
2013-02-26 06:34:00,72.5,70.4,29.82,WNW,290,0.0,3.0,93,0.00,,---,0.00,VWS V14.01,2013-02-26 11:34:00,
2013-02-26 06:39:00,72.5,70.4,29.82,SSE,162,1.0,4.0,93,0.00,,---,0.00,VWS V14.01,2013-02-26 11:39:00,
2013-02-26 06:44:00,72.5,70.4,29.82,SSE,162,1.0,5.0,93,0.00,,---,0.00,VWS V14.01,2013-02-26 11:44:00,
2013-02-26 06:49:00,72.6,70.5,29.81,South,191,1.0,5.0,93,0.00,,---,0.00,VWS V14.01,2013-02-26 11:49:00,
2013-02-26 06:54:00,72.6,70.5,29.81,SSW,207,2.0,9.0,93,0.00,,---,0.00,VWS V14.01,2013-02-26 11:54:00,
2013-02-26 06:59:00,72.7,70.6,29.82,SSW,193,2.0,9.0,93,0.00,,---,0.00,VWS V14.01,2013-02-26 11:59:00,
2013-02-26 07:04:00,72.7,70.6,29.82,SSE,165,3.0,6.0,93,0.00,,---,0.00,VWS V14.01,2013-02-26 12:04:00,
2013-02-26 07:09:00,72.7,70.6,29.81,SSW,205,2.0,6.0,93,0.01,,---,0.01,VWS V14.01,2013-02-26 12:09:00,
2013-02-26 07:14:00,72.6,70.8,29.81,SSE,160,1.0,6.0,94,0.01,,---,0.01,VWS V14.01,2013-02-26 12:14:00,
2013-02-26 07:20:00,72.4,70.6,29.81,SSE,153,2.0,6.0,94,0.01,,---,0.01,VWS V14.01,2013-02-26 12:20:00,
2013-02-26 07:25:00,72.4,70.6,29.81,SSE,166,2.0,6.0,94,0.01,,---,0.01,VWS V14.01,2013-02-26 12:25:00,
2013-02-26 07:30:00,72.5,70.7,29.81,SSE,162,1.0,6.0,94,0.01,,---,0.01,VWS V14.01,2013-02-26 12:30:00,
2013-02-26 07:35:00,72.6,70.8,29.80,SE,146,1.0,8.0,94,0.01,,---,0.01,VWS V14.01,2013-02-26 12:35:00,
2013-02-26 07:40:00,72.5,70.7,29.80,SE,130,3.0,10.0,94,0.01,,---,0.01,VWS V14.01,2013-02-26 12:40:00,
2013-02-26 07:45:00,72.5,70.7,29.80,East,91,3.0,10.0,94,0.01,,---,0.01,VWS V14.01,2013-02-26 12:45:00,
2013-02-26 07:50:00,72.7,70.9,29.80,SSE,160,0.0,10.0,94,0.01,,---,0.01,VWS V14.01,2013-02-26 12:50:00,
2013-02-26 07:55:00,72.9,71.1,29.80,SSE,167,1.0,10.0,94,0.01,,---,0.01,VWS V14.01,2013-02-26 12:55:00,
2013-02-26 08:00:00,73.1,71.0,29.81,SSW,208,5.0,10.0,93,0.01,,---,0.01,VWS V14.01,2013-02-26 13:00:00,
2013-02-26 08:06:00,73.2,71.1,29.81,South,177,1.0,9.0,93,0.01,,---,0.01,VWS V14.01,2013-02-26 13:06:00,
2013-02-26 08:11:00,73.4,71.3,29.81,SE,145,1.0,9.0,93,0.01,,---,0.01,VWS V14.01,2013-02-26 13:11:00,
2013-02-26 08:16:00,73.7,71.2,29.81,South,174,2.0,9.0,92,0.01,,---,0.01,VWS V14.01,2013-02-26 13:16:00,
2013-02-26 08:21:00,73.9,71.4,29.81,SSE,148,2.0,9.0,92,0.01,,---,0.01,VWS V14.01,2013-02-26 13:21:00,
2013-02-26 08:26:00,74.2,71.4,29.81,South,181,7.0,12.0,91,0.01,,---,0.01,VWS V14.01,2013-02-26 13:26:00,
2013-02-26 08:31:00,74.4,71.3,29.82,South,170,3.0,12.0,90,0.01,,---,0.01,VWS V14.01,2013-02-26 13:31:00,
2013-02-26 08:36:00,74.6,71.5,29.82,SSE,165,1.0,6.0,90,0.00,,---,0.01,VWS V14.01,2013-02-26 13:36:00,
2013-02-26 08:41:00,74.8,71.7,29.82,NE,51,1.0,7.0,90,0.00,,---,0.01,VWS V14.01,2013-02-26 13:41:00,
2013-02-26 08:46:00,75.3,72.2,29.82,SSE,155,2.0,7.0,90,0.00,,---,0.01,VWS V14.01,2013-02-26 13:46:00,
2013-02-26 08:51:00,75.5,72.0,29.82,SSE,155,4.0,8.0,89,0.00,,---,0.01,VWS V14.01,2013-02-26 13:51:00,
2013-02-26 08:56:00,75.8,72.0,29.83,SSE,149,4.0,9.0,88,0.00,,---,0.01,VWS V14.01,2013-02-26 13:56:00,
2013-02-26 09:01:00,76.2,72.4,29.82,SW,221,5.0,9.0,88,0.00,,---,0.01,VWS V14.01,2013-02-26 14:01:00,
2013-02-26 09:06:00,76.5,72.7,29.82,SSW,204,2.0,10.0,88,0.00,,---,0.01,VWS V14.01,2013-02-26 14:06:00,
2013-02-26 09:11:00,76.6,72.4,29.82,SSW,210,2.0,10.0,87,0.00,,---,0.01,VWS V14.01,2013-02-26 14:11:00,
2013-02-26 09:16:00,76.9,72.4,29.83,SSW,195,11.0,16.0,86,0.00,,---,0.01,VWS V14.01,2013-02-26 14:16:00,
2013-02-26 09:22:00,77.2,72.7,29.83,SSW,204,5.0,16.0,86,0.00,,---,0.01,VWS V14.01,2013-02-26 14:22:00,
2013-02-26 09:27:00,77.4,72.5,29.83,SSE,147,3.0,16.0,85,0.00,,---,0.01,VWS V14.01,2013-02-26 14:27:00,
2013-02-26 09:32:00,77.6,72.7,29.82,SSW,207,4.0,16.0,85,0.00,,---,0.01,VWS V14.01,2013-02-26 14:32:00,
2013-02-26 09:37:00,77.9,72.7,29.82,ESE,105,5.0,12.0,84,0.00,,---,0.01,VWS V14.01,2013-02-26 14:37:00,
2013-02-26 09:42:00,78.4,72.8,29.81,South,190,4.0,12.0,83,0.00,,---,0.01,VWS V14.01,2013-02-26 14:42:00,
2013-02-26 09:47:00,78.8,71.7,29.81,South,173,4.0,17.0,79,0.00,,---,0.01,VWS V14.01,2013-02-26 14:47:00,
2013-02-26 09:52:00,79.1,71.7,29.81,SSE,167,3.0,17.0,78,0.00,,---,0.01,VWS V14.01,2013-02-26 14:52:00,
2013-02-26 09:57:00,79.5,71.3,29.81,ESE,108,4.0,17.0,76,0.00,,---,0.01,VWS V14.01,2013-02-26 14:57:00,
2013-02-26 10:02:00,79.9,71.3,29.81,SSE,160,4.0,10.0,75,0.00,,---,0.01,VWS V14.01,2013-02-26 15:02:00,
2013-02-26 10:07:00,80.3,71.7,29.81,SSE,153,11.0,11.0,75,0.00,,---,0.01,VWS V14.01,2013-02-26 15:07:00,
2013-02-26 10:12:00,80.8,71.7,29.81,SSW,198,2.0,13.0,74,0.00,,---,0.01,VWS V14.01,2013-02-26 15:12:00,
2013-02-26 10:17:00,81.0,71.1,29.81,SW,225,4.0,16.0,72,0.00,,---,0.01,VWS V14.01,2013-02-26 15:17:00,
2013-02-26 10:22:00,81.2,71.7,29.80,West,270,3.0,16.0,73,0.00,,---,0.01,VWS V14.01,2013-02-26 15:22:00,
2013-02-26 10:27:00,81.5,71.6,29.81,SSE,167,4.0,16.0,72,0.00,,---,0.01,VWS V14.01,2013-02-26 15:27:00,
2013-02-26 10:32:00,81.7,71.4,29.82,South,187,5.0,5.0,71,0.00,,---,0.01,VWS V14.01,2013-02-26 15:32:00,
2013-02-26 10:37:00,81.9,70.3,29.82,SW,214,5.0,13.0,68,0.00,,---,0.01,VWS V14.01,2013-02-26 15:37:00,
2013-02-26 10:42:00,81.6,70.0,29.81,ESE,116,4.0,15.0,68,0.00,,---,0.01,VWS V14.01,2013-02-26 15:42:00,
2013-02-26 10:47:00,81.6,70.0,29.81,SSE,167,5.0,15.0,68,0.00,,---,0.01,VWS V14.01,2013-02-26 15:47:00,
2013-02-26 10:52:00,81.6,69.6,29.81,SE,144,3.0,20.0,67,0.00,,---,0.01,VWS V14.01,2013-02-26 15:52:00,
2013-02-26 10:57:00,81.7,69.7,29.82,WSW,248,5.0,20.0,67,0.00,,---,0.01,VWS V14.01,2013-02-26 15:57:00,
2013-02-26 11:02:00,81.7,69.7,29.82,SW,217,7.0,7.0,67,0.00,,---,0.01,VWS V14.01,2013-02-26 16:02:00,
2013-02-26 11:07:00,81.9,69.9,29.82,SSW,208,2.0,11.0,67,0.00,,---,0.01,VWS V14.01,2013-02-26 16:07:00,
2013-02-26 11:13:00,82.3,70.3,29.83,South,185,3.0,11.0,67,0.00,,---,0.01,VWS V14.01,2013-02-26 16:13:00,
2013-02-26 11:18:00,82.5,70.0,29.83,SE,145,2.0,12.0,66,0.00,,---,0.01,VWS V14.01,2013-02-26 16:18:00,
2013-02-26 11:23:00,82.7,70.2,29.83,South,186,4.0,12.0,66,0.00,,---,0.01,VWS V14.01,2013-02-26 16:23:00,
2013-02-26 11:28:00,82.5,70.0,29.83,SSW,210,7.0,12.0,66,0.00,,---,0.01,VWS V14.01,2013-02-26 16:28:00,
2013-02-26 11:33:00,82.1,69.6,29.83,SE,143,1.0,13.0,66,0.00,,---,0.01,VWS V14.01,2013-02-26 16:33:00,
2013-02-26 11:38:00,81.6,69.2,29.83,SW,229,7.0,13.0,66,0.00,,---,0.01,VWS V14.01,2013-02-26 16:38:00,
2013-02-26 11:43:00,81.2,69.2,29.83,SSE,167,8.0,13.0,67,0.00,,---,0.01,VWS V14.01,2013-02-26 16:43:00,
2013-02-26 11:48:00,81.0,69.4,29.83,SSE,148,2.0,13.0,68,0.00,,---,0.01,VWS V14.01,2013-02-26 16:48:00,
2013-02-26 11:53:00,80.8,69.7,29.83,ESE,107,2.0,13.0,69,0.00,,---,0.01,VWS V14.01,2013-02-26 16:53:00,
2013-02-26 11:58:00,80.6,69.9,29.82,South,174,3.0,13.0,70,0.00,,---,0.01,VWS V14.01,2013-02-26 16:58:00,
2013-02-26 12:03:00,80.4,69.7,29.82,WSW,246,2.0,9.0,70,0.00,,---,0.01,VWS V14.01,2013-02-26 17:03:00,
2013-02-26 12:08:00,80.3,70.1,29.82,SSW,211,9.0,9.0,71,0.00,,---,0.01,VWS V14.01,2013-02-26 17:08:00,
2013-02-26 12:13:00,80.4,69.7,29.83,SSE,167,3.0,10.0,70,0.00,,---,0.01,VWS V14.01,2013-02-26 17:13:00,
2013-02-26 12:18:00,80.6,69.5,29.81,SSW,203,2.0,10.0,69,0.00,,---,0.01,VWS V14.01,2013-02-26 17:18:00,
2013-02-26 12:23:00,80.8,69.7,29.80,SE,136,3.0,10.0,69,0.00,,---,0.01,VWS V14.01,2013-02-26 17:23:00,
2013-02-26 12:28:00,81.1,69.6,29.80,South,172,3.0,10.0,68,0.00,,---,0.01,VWS V14.01,2013-02-26 17:28:00,
2013-02-26 12:33:00,81.3,69.3,29.80,SSW,201,3.0,6.0,67,0.00,,---,0.01,VWS V14.01,2013-02-26 17:33:00,
2013-02-26 12:38:00,81.5,69.9,29.79,SE,139,4.0,8.0,68,0.00,,---,0.01,VWS V14.01,2013-02-26 17:38:00,
2013-02-26 12:43:00,81.5,69.1,29.78,WSW,239,5.0,11.0,66,0.00,,---,0.01,VWS V14.01,2013-02-26 17:43:00,
2013-02-26 12:48:00,81.5,69.5,29.80,WSW,243,5.0,11.0,67,0.00,,---,0.01,VWS V14.01,2013-02-26 17:48:00,
2013-02-26 12:54:00,81.5,69.1,29.78,SSE,155,2.0,11.0,66,0.00,,---,0.01,VWS V14.01,2013-02-26 17:54:00,
2013-02-26 12:59:00,81.8,69.3,29.79,South,180,3.0,11.0,66,0.00,,---,0.01,VWS V14.01,2013-02-26 17:59:00,
2013-02-26 13:04:00,81.9,69.4,29.78,SSW,192,4.0,11.0,66,0.00,,---,0.01,VWS V14.01,2013-02-26 18:04:00,
2013-02-26 13:09:00,82.1,70.1,29.78,WSW,248,2.0,11.0,67,0.00,,---,0.01,VWS V14.01,2013-02-26 18:09:00,
2013-02-26 13:14:00,82.1,70.1,29.77,South,184,5.0,12.0,67,0.00,,---,0.01,VWS V14.01,2013-02-26 18:14:00,
2013-02-26 13:19:00,82.1,70.1,29.77,SSE,160,4.0,12.0,67,0.00,,---,0.01,VWS V14.01,2013-02-26 18:19:00,
2013-02-26 13:24:00,82.8,70.7,29.77,South,177,2.0,12.0,67,0.00,,---,0.01,VWS V14.01,2013-02-26 18:24:00,
2013-02-26 13:29:00,83.2,70.2,29.76,SE,145,2.0,12.0,65,0.00,,---,0.01,VWS V14.01,2013-02-26 18:29:00,
2013-02-26 13:34:00,83.3,70.3,29.77,SE,138,3.0,6.0,65,0.00,,---,0.01,VWS V14.01,2013-02-26 18:34:00,
2013-02-26 13:39:00,83.0,69.6,29.78,SSE,160,3.0,10.0,64,0.00,,---,0.01,VWS V14.01,2013-02-26 18:39:00,
2013-02-26 13:44:00,82.6,69.2,29.77,SSW,200,3.0,10.0,64,0.00,,---,0.01,VWS V14.01,2013-02-26 18:44:00,
2013-02-26 13:49:00,82.6,68.7,29.77,WSW,247,4.0,13.0,63,0.00,,---,0.01,VWS V14.01,2013-02-26 18:49:00,
2013-02-26 13:54:00,82.8,69.4,29.77,SW,224,2.0,13.0,64,0.00,,---,0.01,VWS V14.01,2013-02-26 18:54:00,
2013-02-26 13:59:00,83.0,69.1,29.77,SW,218,6.0,13.0,63,0.00,,---,0.01,VWS V14.01,2013-02-26 18:59:00,
2013-02-26 14:04:00,83.1,69.2,29.76,SSE,160,1.0,10.0,63,0.00,,---,0.01,VWS V14.01,2013-02-26 19:04:00,
2013-02-26 14:09:00,83.2,69.3,29.76,WSW,252,5.0,10.0,63,0.00,,---,0.01,VWS V14.01,2013-02-26 19:09:00,
2013-02-26 14:14:00,83.3,69.4,29.76,SW,219,3.0,10.0,63,0.00,,---,0.01,VWS V14.01,2013-02-26 19:14:00,
2013-02-26 14:19:00,83.7,70.2,29.76,SSE,149,4.0,10.0,64,0.00,,---,0.01,VWS V14.01,2013-02-26 19:19:00,
2013-02-26 14:24:00,84.4,69.5,29.75,SSW,195,4.0,12.0,61,0.00,,---,0.01,VWS V14.01,2013-02-26 19:24:00,
2013-02-26 14:29:00,84.2,68.8,29.76,NNE,18,6.0,7.0,60,0.00,,---,0.01,VWS V14.01,2013-02-26 19:29:00,
2013-02-26 14:35:00,84.0,69.1,29.76,SW,226,7.0,10.0,61,0.00,,---,0.01,VWS V14.01,2013-02-26 19:35:00,
2013-02-26 14:40:00,84.0,69.1,29.75,SSW,201,3.0,15.0,61,0.00,,---,0.01,VWS V14.01,2013-02-26 19:40:00,
2013-02-26 14:45:00,83.9,69.5,29.76,SSW,212,5.0,15.0,62,0.00,,---,0.01,VWS V14.01,2013-02-26 19:45:00,
2013-02-26 14:50:00,83.8,68.9,29.76,ESE,108,1.0,15.0,61,0.00,,---,0.01,VWS V14.01,2013-02-26 19:50:00,
2013-02-26 14:55:00,83.7,69.3,29.75,SW,232,3.0,15.0,62,0.00,,---,0.01,VWS V14.01,2013-02-26 19:55:00,
2013-02-26 15:00:00,83.7,68.3,29.76,South,183,5.0,15.0,60,0.00,,---,0.01,VWS V14.01,2013-02-26 20:00:00,
2013-02-26 15:05:00,83.7,67.9,29.75,WNW,302,2.0,15.0,59,0.00,,---,0.01,VWS V14.01,2013-02-26 20:05:00,
2013-02-26 15:10:00,83.7,67.9,29.76,SW,224,5.0,15.0,59,0.00,,---,0.01,VWS V14.01,2013-02-26 20:10:00,
2013-02-26 15:15:00,83.7,67.9,29.76,SSW,212,2.0,15.0,59,0.00,,---,0.01,VWS V14.01,2013-02-26 20:15:00,
2013-02-26 15:20:00,83.7,67.4,29.76,SW,224,5.0,15.0,58,0.00,,---,0.01,VWS V14.01,2013-02-26 20:20:00,
2013-02-26 15:25:00,83.6,67.3,29.76,NE,54,2.0,15.0,58,0.00,,---,0.01,VWS V14.01,2013-02-26 20:25:00,
2013-02-26 15:30:00,83.3,66.5,29.76,NNE,19,3.0,16.0,57,0.00,,---,0.01,VWS V14.01,2013-02-26 20:30:00,
2013-02-26 15:35:00,82.9,66.6,29.76,WSW,238,4.0,11.0,58,0.00,,---,0.01,VWS V14.01,2013-02-26 20:35:00,
2013-02-26 15:40:00,82.5,66.7,29.76,ESE,120,2.0,11.0,59,0.00,,---,0.01,VWS V14.01,2013-02-26 20:40:00,
2013-02-26 15:45:00,82.3,67.0,29.76,SW,228,4.0,13.0,60,0.00,,---,0.01,VWS V14.01,2013-02-26 20:45:00,
2013-02-26 15:50:00,82.2,67.4,29.76,SSE,149,2.0,13.0,61,0.00,,---,0.01,VWS V14.01,2013-02-26 20:50:00,
2013-02-26 15:55:00,82.1,67.3,29.77,East,96,1.0,13.0,61,0.00,,---,0.01,VWS V14.01,2013-02-26 20:55:00,
2013-02-26 16:00:00,81.7,66.9,29.77,WNW,283,3.0,13.0,61,0.00,,---,0.01,VWS V14.01,2013-02-26 21:00:00,
2013-02-26 16:06:00,81.3,67.1,29.77,SSW,194,1.0,8.0,62,0.00,,---,0.01,VWS V14.01,2013-02-26 21:06:00,
2013-02-26 16:11:00,80.8,67.5,29.77,SSW,194,1.0,11.0,64,0.00,,---,0.01,VWS V14.01,2013-02-26 21:11:00,
2013-02-26 16:16:00,80.5,68.1,29.77,WSW,252,5.0,11.0,66,0.00,,---,0.01,VWS V14.01,2013-02-26 21:16:00,
2013-02-26 16:21:00,80.2,69.1,29.77,SSW,203,3.0,11.0,69,0.00,,---,0.01,VWS V14.01,2013-02-26 21:21:00,
2013-02-26 16:26:00,79.8,70.0,29.78,NNE,22,2.0,11.0,72,0.00,,---,0.01,VWS V14.01,2013-02-26 21:26:00,
2013-02-26 16:31:00,79.5,70.5,29.78,SW,222,0.0,11.0,74,0.00,,---,0.01,VWS V14.01,2013-02-26 21:31:00,
2013-02-26 16:36:00,79.0,70.8,29.78,SW,218,2.0,7.0,76,0.00,,---,0.01,VWS V14.01,2013-02-26 21:36:00,
2013-02-26 16:41:00,78.3,70.9,29.78,West,262,2.0,7.0,78,0.00,,---,0.01,VWS V14.01,2013-02-26 21:41:00,
2013-02-26 16:46:00,78.1,70.7,29.78,NE,47,1.0,7.0,78,0.00,,---,0.01,VWS V14.01,2013-02-26 21:46:00,
2013-02-26 16:51:00,77.9,70.9,29.78,East,100,2.0,7.0,79,0.00,,---,0.01,VWS V14.01,2013-02-26 21:51:00,
2013-02-26 16:56:00,77.8,70.4,29.78,SSE,153,4.0,8.0,78,0.00,,---,0.01,VWS V14.01,2013-02-26 21:56:00,
2013-02-26 17:01:00,77.7,70.3,29.77,NW,312,1.0,8.0,78,0.00,,---,0.01,VWS V14.01,2013-02-26 22:01:00,
2013-02-26 17:07:00,77.6,70.2,29.77,SSW,208,0.0,6.0,78,0.00,,---,0.01,VWS V14.01,2013-02-26 22:07:00,
2013-02-26 17:12:00,77.6,70.2,29.77,ENE,57,2.0,8.0,78,0.00,,---,0.01,VWS V14.01,2013-02-26 22:12:00,
2013-02-26 17:17:00,77.8,70.4,29.77,NW,321,3.0,8.0,78,0.00,,---,0.01,VWS V14.01,2013-02-26 22:17:00,
2013-02-26 17:22:00,77.8,70.4,29.77,South,169,3.0,8.0,78,0.00,,---,0.01,VWS V14.01,2013-02-26 22:22:00,
2013-02-26 17:27:00,77.7,70.3,29.77,West,281,2.0,8.0,78,0.00,,---,0.01,VWS V14.01,2013-02-26 22:27:00,
2013-02-26 17:32:00,77.4,70.4,29.77,SW,236,6.0,6.0,79,0.00,,---,0.01,VWS V14.01,2013-02-26 22:32:00,
2013-02-26 17:37:00,77.3,70.3,29.78,SSE,165,1.0,6.0,79,0.00,,---,0.01,VWS V14.01,2013-02-26 22:37:00,
2013-02-26 17:42:00,77.1,70.1,29.78,ENE,77,1.0,6.0,79,0.00,,---,0.01,VWS V14.01,2013-02-26 22:42:00,
2013-02-26 17:47:00,77.0,70.4,29.78,SSW,202,0.0,6.0,80,0.00,,---,0.01,VWS V14.01,2013-02-26 22:47:00,
2013-02-26 17:52:00,76.9,70.3,29.78,WNW,298,0.0,8.0,80,0.00,,---,0.01,VWS V14.01,2013-02-26 22:52:00,
2013-02-26 17:57:00,76.8,69.8,29.78,WSW,256,6.0,9.0,79,0.00,,---,0.01,VWS V14.01,2013-02-26 22:57:00,
2013-02-26 18:02:00,76.6,69.6,29.78,WNW,295,1.0,4.0,79,0.00,,---,0.01,VWS V14.01,2013-02-26 23:02:00,
2013-02-26 18:08:00,76.5,69.5,29.78,WNW,300,4.0,7.0,79,0.00,,---,0.01,VWS V14.01,2013-02-26 23:08:00,
2013-02-26 18:13:00,76.4,69.4,29.78,SSE,167,2.0,7.0,79,0.00,,---,0.01,VWS V14.01,2013-02-26 23:13:00,
2013-02-26 18:18:00,76.3,69.7,29.79,SSE,165,0.0,11.0,80,0.00,,---,0.01,VWS V14.01,2013-02-26 23:18:00,
2013-02-26 18:23:00,76.2,69.9,29.79,South,185,1.0,11.0,81,0.00,,---,0.01,VWS V14.01,2013-02-26 23:23:00,
2013-02-26 18:28:00,76.1,69.8,29.79,WSW,253,1.0,11.0,81,0.00,,---,0.01,VWS V14.01,2013-02-26 23:28:00,
2013-02-26 18:33:00,76.0,69.8,29.79,SSW,204,2.0,3.0,81,0.00,,---,0.01,VWS V14.01,2013-02-26 23:33:00,
2013-02-26 18:38:00,75.9,70.0,29.79,South,183,3.0,6.0,82,0.00,,---,0.01,VWS V14.01,2013-02-26 23:38:00,
2013-02-26 18:43:00,75.7,69.8,29.79,WNW,288,4.0,7.0,82,0.00,,---,0.01,VWS V14.01,2013-02-26 23:43:00,
2013-02-26 18:48:00,75.5,70.0,29.79,SSW,197,1.0,10.0,83,0.00,,---,0.01,VWS V14.01,2013-02-26 23:48:00,
2013-02-26 18:54:00,75.3,69.8,29.79,SE,128,1.0,10.0,83,0.00,,---,0.01,VWS V14.01,2013-02-26 23:54:00,
2013-02-26 18:59:00,75.2,70.0,29.79,South,176,2.0,10.0,84,0.00,,---,0.01,VWS V14.01,2013-02-26 23:59:00,
2013-02-26 19:04:00,75.1,69.9,29.80,SSW,205,0.0,5.0,84,0.00,,---,0.01,VWS V14.01,2013-02-27 00:04:00,
2013-02-26 19:09:00,74.9,69.7,29.80,South,179,1.0,6.0,84,0.00,,---,0.01,VWS V14.01,2013-02-27 00:09:00,
2013-02-26 19:14:00,74.9,69.4,29.80,West,266,4.0,10.0,83,0.00,,---,0.01,VWS V14.01,2013-02-27 00:14:00,
2013-02-26 19:19:00,75.0,69.5,29.80,SE,130,2.0,10.0,83,0.00,,---,0.01,VWS V14.01,2013-02-27 00:19:00,
2013-02-26 19:24:00,75.0,69.5,29.80,WNW,293,2.0,10.0,83,0.00,,---,0.01,VWS V14.01,2013-02-27 00:24:00,
2013-02-26 19:29:00,74.8,69.3,29.81,South,191,1.0,10.0,83,0.00,,---,0.01,VWS V14.01,2013-02-27 00:29:00,
2013-02-26 19:34:00,74.6,69.4,29.81,SSW,212,2.0,7.0,84,0.00,,---,0.01,VWS V14.01,2013-02-27 00:34:00,
2013-02-26 19:39:00,74.4,69.3,29.81,SSE,148,2.0,7.0,84,0.00,,---,0.01,VWS V14.01,2013-02-27 00:39:00,
2013-02-26 19:44:00,74.2,69.4,29.82,WSW,245,0.0,8.0,85,0.00,,---,0.01,VWS V14.01,2013-02-27 00:44:00,
2013-02-26 19:50:00,74.0,69.6,29.82,SSW,201,1.0,8.0,86,0.00,,---,0.01,VWS V14.01,2013-02-27 00:50:00,
2013-02-26 19:55:00,73.8,69.3,29.82,SW,222,3.0,8.0,86,0.00,,---,0.01,VWS V14.01,2013-02-27 00:55:00,
2013-02-26 20:00:00,73.7,69.3,29.83,SSW,195,7.0,9.0,86,0.00,,---,0.01,VWS V14.01,2013-02-27 01:00:00,
2013-02-26 20:05:00,73.6,69.2,29.83,SSW,201,2.0,9.0,86,0.00,,---,0.01,VWS V14.01,2013-02-27 01:05:00,
2013-02-26 20:10:00,73.6,69.5,29.83,WSW,256,3.0,9.0,87,0.00,,---,0.01,VWS V14.01,2013-02-27 01:10:00,
2013-02-26 20:15:00,73.5,69.4,29.83,WSW,242,4.0,9.0,87,0.00,,---,0.01,VWS V14.01,2013-02-27 01:15:00,
2013-02-26 20:20:00,73.5,69.4,29.83,WSW,250,3.0,9.0,87,0.00,,---,0.01,VWS V14.01,2013-02-27 01:20:00,
2013-02-26 20:25:00,73.5,69.4,29.83,SW,236,7.0,9.0,87,0.00,,---,0.01,VWS V14.01,2013-02-27 01:25:00,
2013-02-26 20:30:00,73.3,69.2,29.83,SW,236,3.0,9.0,87,0.00,,---,0.01,VWS V14.01,2013-02-27 01:30:00,
2013-02-26 20:35:00,73.2,69.1,29.83,SW,215,4.0,9.0,87,0.00,,---,0.01,VWS V14.01,2013-02-27 01:35:00,
2013-02-26 20:41:00,73.1,69.3,29.83,West,277,2.0,9.0,88,0.00,,---,0.01,VWS V14.01,2013-02-27 01:41:00,
2013-02-26 20:46:00,73.1,69.3,29.83,West,273,0.0,9.0,88,0.00,,---,0.01,VWS V14.01,2013-02-27 01:46:00,
2013-02-26 20:51:00,72.9,69.1,29.84,South,169,1.0,9.0,88,0.00,,---,0.01,VWS V14.01,2013-02-27 01:51:00,
2013-02-26 20:56:00,72.8,69.0,29.84,South,176,2.0,9.0,88,0.00,,---,0.01,VWS V14.01,2013-02-27 01:56:00,
2013-02-26 21:01:00,72.7,68.9,29.84,SSE,167,1.0,9.0,88,0.00,,---,0.01,VWS V14.01,2013-02-27 02:01:00,
2013-02-26 21:06:00,72.6,69.2,29.84,SW,228,2.0,6.0,89,0.00,,---,0.01,VWS V14.01,2013-02-27 02:06:00,
2013-02-26 21:11:00,72.4,69.0,29.84,WSW,245,5.0,6.0,89,0.00,,---,0.01,VWS V14.01,2013-02-27 02:11:00,
2013-02-26 21:16:00,72.3,68.9,29.84,West,267,5.0,6.0,89,0.00,,---,0.01,VWS V14.01,2013-02-27 02:16:00,
2013-02-26 21:21:00,72.0,68.6,29.85,SSW,194,2.0,6.0,89,0.00,,---,0.01,VWS V14.01,2013-02-27 02:21:00,
2013-02-26 21:27:00,71.8,68.7,29.85,West,267,0.0,6.0,90,0.00,,---,0.01,VWS V14.01,2013-02-27 02:27:00,
2013-02-26 21:32:00,71.6,68.5,29.85,WNW,291,1.0,1.0,90,0.00,,---,0.01,VWS V14.01,2013-02-27 02:32:00,
2013-02-26 21:37:00,71.4,68.3,29.85,South,169,0.0,5.0,90,0.00,,---,0.01,VWS V14.01,2013-02-27 02:37:00,
2013-02-26 21:42:00,71.2,68.4,29.85,WSW,255,1.0,6.0,91,0.00,,---,0.01,VWS V14.01,2013-02-27 02:42:00,
2013-02-26 21:47:00,71.0,68.2,29.85,SW,233,2.0,6.0,91,0.00,,---,0.01,VWS V14.01,2013-02-27 02:47:00,
2013-02-26 21:52:00,70.7,67.9,29.85,SW,233,2.0,6.0,91,0.00,,---,0.01,VWS V14.01,2013-02-27 02:52:00,
2013-02-26 21:57:00,70.4,67.0,29.85,SW,219,1.0,9.0,89,0.00,,---,0.01,VWS V14.01,2013-02-27 02:57:00,
2013-02-26 22:02:00,70.2,66.5,29.86,South,188,2.0,4.0,88,0.00,,---,0.01,VWS V14.01,2013-02-27 03:02:00,
2013-02-26 22:07:00,70.0,65.6,29.86,WNW,288,1.0,6.0,86,0.00,,---,0.01,VWS V14.01,2013-02-27 03:07:00,
2013-02-26 22:12:00,69.7,65.0,29.86,WSW,238,3.0,6.0,85,0.00,,---,0.01,VWS V14.01,2013-02-27 03:12:00,
2013-02-26 22:17:00,69.4,64.7,29.86,WSW,252,2.0,8.0,85,0.00,,---,0.01,VWS V14.01,2013-02-27 03:17:00,
2013-02-26 22:22:00,69.3,64.9,29.86,SSE,155,0.0,8.0,86,0.00,,---,0.01,VWS V14.01,2013-02-27 03:22:00,
2013-02-26 22:27:00,69.1,64.7,29.86,SSW,195,0.0,8.0,86,0.00,,---,0.01,VWS V14.01,2013-02-27 03:27:00,
2013-02-26 22:32:00,68.8,64.8,29.86,WSW,242,3.0,4.0,87,0.00,,---,0.01,VWS V14.01,2013-02-27 03:32:00,
2013-02-26 22:37:00,68.6,64.9,29.86,WNW,300,0.0,7.0,88,0.00,,---,0.01,VWS V14.01,2013-02-27 03:37:00,
2013-02-26 22:42:00,68.5,64.8,29.86,WNW,293,2.0,7.0,88,0.00,,---,0.01,VWS V14.01,2013-02-27 03:42:00,
2013-02-26 22:47:00,68.3,64.6,29.87,West,276,0.0,7.0,88,0.00,,---,0.01,VWS V14.01,2013-02-27 03:47:00,
2013-02-26 22:52:00,68.2,64.5,29.86,SW,218,0.0,7.0,88,0.00,,---,0.01,VWS V14.01,2013-02-27 03:52:00,
2013-02-26 22:57:00,67.9,64.5,29.86,WSW,249,1.0,7.0,89,0.00,,---,0.01,VWS V14.01,2013-02-27 03:57:00,
2013-02-26 23:03:00,67.7,64.7,29.86,SSE,156,0.0,2.0,90,0.00,,---,0.01,VWS V14.01,2013-02-27 04:03:00,
2013-02-26 23:08:00,67.6,64.6,29.86,SW,233,0.0,6.0,90,0.00,,---,0.01,VWS V14.01,2013-02-27 04:08:00,
2013-02-26 23:13:00,67.4,64.4,29.86,South,174,0.0,6.0,90,0.00,,---,0.01,VWS V14.01,2013-02-27 04:13:00,
2013-02-26 23:18:00,67.3,64.3,29.86,SW,219,0.0,6.0,90,0.00,,---,0.01,VWS V14.01,2013-02-27 04:18:00,
2013-02-26 23:23:00,67.2,64.2,29.86,West,264,0.0,6.0,90,0.00,,---,0.01,VWS V14.01,2013-02-27 04:23:00,
2013-02-26 23:28:00,67.0,64.3,29.86,South,176,0.0,6.0,91,0.00,,---,0.01,VWS V14.01,2013-02-27 04:28:00,
2013-02-26 23:33:00,66.8,64.1,29.86,West,266,1.0,3.0,91,0.00,,---,0.01,VWS V14.01,2013-02-27 04:33:00,
2013-02-26 23:38:00,66.6,64.2,29.86,SW,221,1.0,4.0,92,0.00,,---,0.01,VWS V14.01,2013-02-27 04:38:00,
2013-02-26 23:43:00,66.5,64.1,29.87,SW,224,0.0,7.0,92,0.00,,---,0.01,VWS V14.01,2013-02-27 04:43:00,
2013-02-26 23:48:00,66.3,63.9,29.87,SW,217,2.0,7.0,92,0.00,,---,0.01,VWS V14.01,2013-02-27 04:48:00,
2013-02-26 23:53:00,66.2,63.8,29.87,SE,142,1.0,7.0,92,0.00,,---,0.01,VWS V14.01,2013-02-27 04:53:00,
2013-02-26 23:58:00,66.0,63.6,29.87,WNW,285,1.0,7.0,92,0.00,,---,0.01,VWS V14.01,2013-02-27 04:58:00,